TimeEST,TemperatureF,Dew PointF,Humidity,Sea Level PressureIn,VisibilityMPH,Wind Direction,Wind SpeedMPH,Gust SpeedMPH,PrecipitationIn,Events,Conditions,WindDirDegrees,DateUTC
12:15 AM,32.0,23.9,72,29.98,10.0,North,4.6,-,N/A,,Overcast,350,2012-11-09 05:15:00
12:35 AM,32.0,24.3,73,29.98,10.0,North,5.8,-,N/A,,Overcast,350,2012-11-09 05:35:00
12:55 AM,32.0,24.8,75,29.98,10.0,NNW,3.5,-,N/A,,Overcast,340,2012-11-09 05:55:00
1:15 AM,30.2,23.9,77,29.97,10.0,Calm,Calm,-,N/A,,Scattered Clouds,0,2012-11-09 06:15:00
1:35 AM,28.9,23.5,80,29.97,10.0,Calm,Calm,-,N/A,,Clear,0,2012-11-09 06:35:00
1:55 AM,28.2,23.4,82,29.97,10.0,Calm,Calm,-,N/A,,Clear,0,2012-11-09 06:55:00
2:15 AM,27.1,23.0,84,29.98,10.0,Calm,Calm,-,N/A,,Clear,0,2012-11-09 07:15:00
2:35 AM,27.1,23.0,84,29.98,10.0,Calm,Calm,-,N/A,,Clear,0,2012-11-09 07:35:00
2:55 AM,27.1,23.0,84,29.98,10.0,Calm,Calm,-,N/A,,Clear,0,2012-11-09 07:55:00
3:15 AM,27.1,23.4,86,29.98,10.0,NW,3.5,-,N/A,,Clear,310,2012-11-09 08:15:00
3:35 AM,27.1,23.0,84,29.98,10.0,Calm,Calm,-,N/A,,Clear,0,2012-11-09 08:35:00
4:15 AM,27.1,23.0,84,30.00,10.0,Calm,Calm,-,N/A,,Clear,0,2012-11-09 09:15:00
4:35 AM,27.1,23.5,86,30.00,10.0,Calm,Calm,-,N/A,,Clear,0,2012-11-09 09:35:00
4:55 AM,27.1,23.4,86,30.01,10.0,Calm,Calm,-,N/A,,Clear,0,2012-11-09 09:55:00
5:15 AM,27.1,23.5,86,30.00,10.0,Calm,Calm,-,N/A,,Clear,0,2012-11-09 10:15:00
5:35 AM,27.1,23.9,88,30.01,10.0,Calm,Calm,-,N/A,,Clear,0,2012-11-09 10:35:00
5:55 AM,24.8,21.7,88,30.01,10.0,Calm,Calm,-,N/A,,Clear,0,2012-11-09 10:55:00
6:15 AM,24.6,22.1,90,30.02,10.0,Calm,Calm,-,N/A,,Clear,0,2012-11-09 11:15:00
6:35 AM,27.1,23.7,87,30.01,10.0,WNW,3.5,-,N/A,,Clear,300,2012-11-09 11:35:00
6:55 AM,26.8,23.5,88,30.02,10.0,Calm,Calm,-,N/A,,Clear,0,2012-11-09 11:55:00
7:15 AM,27.1,23.9,88,30.03,10.0,Calm,Calm,-,N/A,,Clear,0,2012-11-09 12:15:00
7:35 AM,27.1,23.0,84,30.05,10.0,Calm,Calm,-,N/A,,Clear,0,2012-11-09 12:35:00
7:55 AM,28.9,24.3,83,30.05,10.0,Calm,Calm,-,N/A,,Clear,0,2012-11-09 12:55:00
8:15 AM,29.7,23.9,79,30.04,10.0,Calm,Calm,-,N/A,,Clear,0,2012-11-09 13:15:00
8:35 AM,30.4,24.8,80,30.06,10.0,Calm,Calm,-,N/A,,Scattered Clouds,0,2012-11-09 13:35:00
8:55 AM,30.6,24.3,77,30.05,10.0,NW,4.6,-,N/A,,Mostly Cloudy,320,2012-11-09 13:55:00
9:15 AM,32.0,24.8,75,30.05,10.0,NNW,5.8,-,N/A,,Scattered Clouds,340,2012-11-09 14:15:00
9:35 AM,32.0,23.5,71,30.05,10.0,North,4.6,-,N/A,,Clear,360,2012-11-09 14:35:00
9:55 AM,33.1,24.1,70,30.05,10.0,North,5.8,-,N/A,,Clear,360,2012-11-09 14:55:00
10:15 AM,34.3,24.3,67,30.05,10.0,NNW,3.5,-,N/A,,Clear,340,2012-11-09 15:15:00
10:35 AM,34.9,24.1,65,30.05,10.0,Calm,Calm,-,N/A,,Scattered Clouds,0,2012-11-09 15:35:00
10:55 AM,36.0,24.4,63,30.05,10.0,NW,3.5,-,N/A,,Mostly Cloudy,320,2012-11-09 15:55:00
11:15 AM,36.9,24.6,61,30.04,10.0,NW,3.5,-,N/A,,Mostly Cloudy,320,2012-11-09 16:15:00
11:35 AM,36.9,24.1,60,30.05,10.0,NNW,3.5,-,N/A,,Mostly Cloudy,340,2012-11-09 16:35:00
11:55 AM,37.2,23.9,59,30.04,10.0,Calm,Calm,-,N/A,,Overcast,0,2012-11-09 16:55:00
12:15 PM,40.3,21.9,48,30.03,10.0,NW,5.8,-,N/A,,Scattered Clouds,310,2012-11-09 17:15:00
12:35 PM,41.9,22.1,45,30.03,10.0,NW,8.1,-,N/A,,Clear,310,2012-11-09 17:35:00
12:55 PM,43.5,23.0,44,30.02,10.0,WNW,5.8,-,N/A,,Scattered Clouds,300,2012-11-09 17:55:00
1:15 PM,40.6,21.4,46,30.02,10.0,WNW,8.1,-,N/A,,Overcast,300,2012-11-09 18:15:00
1:35 PM,39.7,21.4,48,30.02,10.0,WNW,6.9,-,N/A,,Overcast,290,2012-11-09 18:35:00
1:55 PM,39.6,21.2,48,30.02,10.0,WNW,3.5,-,N/A,,Overcast,290,2012-11-09 18:55:00
2:15 PM,39.7,21.2,48,30.02,10.0,West,3.5,-,N/A,,Overcast,280,2012-11-09 19:15:00
2:35 PM,39.7,21.9,49,30.03,10.0,West,4.6,-,N/A,,Overcast,270,2012-11-09 19:35:00
2:55 PM,39.7,22.6,50,30.03,10.0,Calm,Calm,-,N/A,,Overcast,0,2012-11-09 19:55:00
3:15 PM,39.6,23.5,53,30.03,10.0,West,6.9,-,N/A,,Overcast,280,2012-11-09 20:15:00
3:35 PM,39.4,24.1,54,30.04,10.0,West,5.8,-,N/A,,Overcast,280,2012-11-09 20:35:00
3:55 PM,39.4,24.8,56,30.04,10.0,Calm,Calm,-,N/A,,Overcast,0,2012-11-09 20:55:00
4:15 PM,39.4,25.3,57,30.05,10.0,West,5.8,-,N/A,,Overcast,280,2012-11-09 21:15:00
4:35 PM,39.4,26.2,59,30.05,10.0,West,5.8,-,N/A,,Overcast,280,2012-11-09 21:35:00
4:55 PM,39.4,28.4,65,30.05,10.0,West,3.5,-,N/A,,Overcast,280,2012-11-09 21:55:00
5:15 PM,39.4,28.9,66,30.05,10.0,Calm,Calm,-,N/A,,Overcast,0,2012-11-09 22:15:00
5:35 PM,39.4,29.3,67,30.06,10.0,Calm,Calm,-,N/A,,Overcast,0,2012-11-09 22:35:00
5:55 PM,39.4,29.1,67,30.06,10.0,West,3.5,-,N/A,,Overcast,270,2012-11-09 22:55:00
6:15 PM,39.4,29.1,67,30.06,10.0,Calm,Calm,-,N/A,,Overcast,0,2012-11-09 23:15:00
6:35 PM,39.4,29.1,67,30.07,10.0,West,3.5,-,N/A,,Overcast,270,2012-11-09 23:35:00
6:55 PM,39.4,29.3,67,30.08,10.0,West,3.5,-,N/A,,Overcast,280,2012-11-09 23:55:00
7:15 PM,39.4,29.8,69,30.08,10.0,Calm,Calm,-,N/A,,Overcast,0,2012-11-10 00:15:00
7:35 PM,39.4,30.0,69,30.08,10.0,West,5.8,-,N/A,,Overcast,270,2012-11-10 00:35:00
7:55 PM,39.4,30.2,70,30.08,10.0,Calm,Calm,-,N/A,,Overcast,0,2012-11-10 00:55:00
8:15 PM,39.2,30.6,71,30.08,10.0,West,3.5,-,N/A,,Overcast,270,2012-11-10 01:15:00
8:35 PM,39.2,30.9,72,30.09,10.0,Calm,Calm,-,N/A,,Overcast,0,2012-11-10 01:35:00
9:15 PM,39.2,31.3,73,30.10,10.0,Calm,Calm,-,N/A,,Overcast,0,2012-11-10 02:15:00
9:35 PM,39.2,31.5,74,30.11,10.0,Calm,Calm,-,N/A,,Overcast,0,2012-11-10 02:35:00
10:15 PM,39.2,31.5,74,30.10,10.0,West,3.5,-,N/A,,Overcast,260,2012-11-10 03:15:00
10:35 PM,39.2,31.6,74,30.10,10.0,Calm,Calm,-,N/A,,Overcast,0,2012-11-10 03:35:00
10:55 PM,38.7,31.3,75,30.10,10.0,Calm,Calm,-,N/A,,Overcast,0,2012-11-10 03:55:00
11:15 PM,38.3,31.1,75,30.10,10.0,Calm,Calm,-,N/A,,Overcast,0,2012-11-10 04:15:00
11:35 PM,38.7,31.8,76,30.10,10.0,Calm,Calm,-,N/A,,Overcast,0,2012-11-10 04:35:00
11:55 PM,39.4,32.0,75,30.11,10.0,SW,4.6,-,N/A,,Overcast,230,2012-11-10 04:55:00